{"data":{"norad_id":49078,"epoch":"2026-05-25T01:42:45.667296Z","epoch_age_seconds":79167,"freshness":"FRESH","line1":"1 49078U 21075D   26145.07136189 -.00000367  00000+0 -10546-2 0  9991","line2":"2 49078  87.8959 355.2522 0001846  93.6473 266.4866 13.12441666232156","mean_motion":13.12441666,"eccentricity":0.0001846,"inclination_deg":87.8959,"raan_deg":355.2522,"arg_perigee_deg":93.6473,"mean_anomaly_deg":266.4866,"bstar":-0.0010546,"rev_number":23215,"period_min":109.71916217722,"perigee_km":1212.3269770643,"apogee_km":1215.129893783,"semimajor_km":7591.8654354237,"source":"CELESTRAK","updated_at":"2026-05-25T13:38:22.481119Z"}}